When you browse on this site, cookies collect data to enhance your experience and personalize the content and advertising you see.
Visit our Privacy Policy to learn more. By continuing to use the site, you agree to this use of cookies and data.
  • In Hungary
  • List of Countries
  • For 7 days
  • Water Temperature
  • Weather Map
  • News
  • Weather Widgets
  • user-avatar
    Login

    Hourly Weather Castelnaudary

    Today, 18 November, Monday

    Time Temperature Precipitation Wind Pressure Humidity
    00:00 +7°C° 0 mm 1 mps 729 mmHg 94%
    01:00 +7°C° 0.5 mm 1 mps 729 mmHg 94%
    02:00 +7°C° 0.5 mm 1 mps 729 mmHg 94%
    03:00 +7°C° 0.5 mm 1 mps 729 mmHg 94%
    04:00 +7°C° 0.5 mm 1 mps 730 mmHg 94%
    05:00 +7°C° 0.5 mm 1 mps 730 mmHg 94%
    06:00 +6°C° 0 mm 2 mps 731 mmHg 94%
    07:00 +5°C° 0.3 mm 2 mps 731 mmHg 91%
    08:00 +4°C° 0.3 mm 3 mps 732 mmHg 88%
    09:00 +4°C° 0.3 mm 3 mps 732 mmHg 85%
    10:00 +5°C° 0.1 mm 4 mps 732 mmHg 82%
    11:00 +5°C° 0.1 mm 4 mps 732 mmHg 78%
    12:00 +6°C° 0.1 mm 5 mps 733 mmHg 75%
    13:00 +6°C° 0 mm 5 mps 733 mmHg 75%
    14:00 +6°C° 0 mm 5 mps 733 mmHg 74%
    15:00 +5°C° 0 mm 5 mps 733 mmHg 74%
    16:00 +5°C° 0 mm 5 mps 733 mmHg 78%
    17:00 +4°C° 0 mm 4 mps 734 mmHg 81%
    18:00 +3°C° 0 mm 3 mps 734 mmHg 85%
    19:00 +3°C° 0 mm 4 mps 734 mmHg 84%
    20:00 +3°C° 0 mm 4 mps 735 mmHg 83%
    21:00 +3°C° 0 mm 4 mps 735 mmHg 82%
    22:00 +3°C° 0 mm 4 mps 735 mmHg 81%
    23:00 +3°C° 0 mm 4 mps 735 mmHg 80%

    Tomorrow, 19 November, Tuesday

    Time Temperature Precipitation Wind Pressure Humidity
    00:00 +3°C° 0 mm 4 mps 735 mmHg 79%
    01:00 +3°C° 0 mm 4 mps 735 mmHg 79%
    02:00 +3°C° 0 mm 4 mps 735 mmHg 79%
    03:00 +3°C° 0 mm 3 mps 734 mmHg 79%
    04:00 +2°C° 0 mm 3 mps 734 mmHg 81%
    05:00 +2°C° 0 mm 3 mps 734 mmHg 83%
    06:00 +1°C° 0 mm 3 mps 734 mmHg 85%
    07:00 +2°C° 0 mm 3 mps 735 mmHg 82%
    08:00 +3°C° 0 mm 3 mps 735 mmHg 79%
    09:00 +3°C° 0 mm 3 mps 735 mmHg 76%
    10:00 +4°C° 0 mm 3 mps 735 mmHg 73%
    11:00 +5°C° 0 mm 3 mps 734 mmHg 70%
    12:00 +7°C° 0 mm 3 mps 734 mmHg 66%
    13:00 +7°C° 0 mm 2 mps 734 mmHg 67%
    14:00 +7°C° 0 mm 2 mps 734 mmHg 67%
    15:00 +7°C° 0 mm 2 mps 733 mmHg 68%
    16:00 +7°C° 0 mm 1 mps 734 mmHg 74%
    17:00 +6°C° 0 mm 1 mps 734 mmHg 79%
    18:00 +5°C° 0 mm 1 mps 734 mmHg 85%
    19:00 +4°C° 0 mm 1 mps 734 mmHg 86%
    20:00 +4°C° 0 mm 1 mps 734 mmHg 87%
    21:00 +3°C° 0 mm 0 mps 735 mmHg 87%
    22:00 +3°C° 0 mm 1 mps 734 mmHg 87%
    23:00 +3°C° 0 mm 1 mps 734 mmHg 87%

    Day after tomorrow, 20 November, Wednesday

    Time Temperature Precipitation Wind Pressure Humidity
    00:00 +3°C° 0 mm 1 mps 734 mmHg 86%
    01:00 +3°C° 0 mm 1 mps 733 mmHg 86%
    02:00 +3°C° 0 mm 1 mps 733 mmHg 85%
    03:00 +2°C° 0 mm 2 mps 733 mmHg 85%
    04:00 +2°C° 0 mm 2 mps 733 mmHg 85%
    05:00 +2°C° 0 mm 2 mps 732 mmHg 85%
    06:00 +1°C° 0 mm 2 mps 732 mmHg 85%
    07:00 +3°C° 0 mm 2 mps 732 mmHg 83%
    08:00 +3°C° 0 mm 3 mps 732 mmHg 81%
    09:00 +4°C° 0 mm 3 mps 733 mmHg 78%
    10:00 +6°C° 0 mm 4 mps 732 mmHg 75%
    11:00 +7°C° 0 mm 4 mps 732 mmHg 72%
    12:00 +8°C° 0 mm 5 mps 732 mmHg 69%
    13:00 +8°C° 0 mm 5 mps 732 mmHg 70%
    14:00 +8°C° 0 mm 4 mps 731 mmHg 71%
    15:00 +8°C° 0 mm 4 mps 731 mmHg 72%
    16:00 +7°C° 0 mm 4 mps 731 mmHg 75%
    17:00 +5°C° 0 mm 4 mps 731 mmHg 79%
    18:00 +4°C° 0 mm 3 mps 731 mmHg 82%
    19:00 +4°C° 0 mm 3 mps 731 mmHg 81%
    20:00 +4°C° 0 mm 3 mps 731 mmHg 80%
    21:00 +3°C° 0 mm 3 mps 731 mmHg 79%
    22:00 +3°C° 0 mm 3 mps 731 mmHg 78%
    23:00 +4°C° 0 mm 2 mps 731 mmHg 77%

    21 November, Thursday

    Time Temperature Precipitation Wind Pressure Humidity
    00:00 +4°C° 0 mm 2 mps 731 mmHg 76%
    01:00 +4°C° 0 mm 2 mps 731 mmHg 77%
    02:00 +4°C° 0 mm 2 mps 730 mmHg 77%
    03:00 +4°C° 0 mm 2 mps 730 mmHg 77%
    04:00 +5°C° 0 mm 1 mps 730 mmHg 77%
    05:00 +5°C° 0 mm 1 mps 730 mmHg 77%
    06:00 +4°C° 0 mm 0 mps 730 mmHg 76%
    07:00 +6°C° 0 mm 1 mps 731 mmHg 75%
    08:00 +7°C° 0 mm 1 mps 731 mmHg 74%
    09:00 +8°C° 0 mm 1 mps 731 mmHg 72%
    10:00 +9°C° 0 mm 1 mps 731 mmHg 69%
    11:00 +10°C° 0 mm 2 mps 731 mmHg 65%
    12:00 +12°C° 0 mm 2 mps 731 mmHg 62%
    13:00 +12°C° 0 mm 2 mps 731 mmHg 64%
    14:00 +12°C° 0 mm 2 mps 730 mmHg 67%
    15:00 +12°C° 0 mm 2 mps 730 mmHg 69%
    16:00 +9°C° 0 mm 2 mps 730 mmHg 75%
    17:00 +8°C° 0 mm 2 mps 731 mmHg 81%
    18:00 +7°C° 0 mm 2 mps 731 mmHg 87%
    19:00 +7°C° 0 mm 2 mps 731 mmHg 88%
    20:00 +5°C° 0 mm 3 mps 731 mmHg 89%
    21:00 +5°C° 0 mm 3 mps 731 mmHg 91%
    22:00 +5°C° 0 mm 3 mps 731 mmHg 91%
    23:00 +5°C° 0 mm 3 mps 731 mmHg 91%

    22 November, Friday

    Time Temperature Precipitation Wind Pressure Humidity
    00:00 +5°C° 0 mm 3 mps 731 mmHg 91%
    01:00 +5°C° 0 mm 3 mps 730 mmHg 91%
    02:00 +5°C° 0 mm 4 mps 730 mmHg 90%
    03:00 +5°C° 0 mm 4 mps 730 mmHg 90%
    04:00 +5°C° 0 mm 4 mps 729 mmHg 90%
    05:00 +5°C° 0 mm 5 mps 729 mmHg 90%
    06:00 +5°C° 0 mm 5 mps 728 mmHg 90%
    07:00 +6°C° 0 mm 5 mps 728 mmHg 87%
    08:00 +7°C° 0 mm 6 mps 727 mmHg 83%
    09:00 +7°C° 0 mm 6 mps 727 mmHg 79%
    10:00 +9°C° 0 mm 7 mps 726 mmHg 74%
    11:00 +10°C° 0 mm 7 mps 726 mmHg 69%
    12:00 +11°C° 0 mm 7 mps 725 mmHg 64%
    13:00 +11°C° 0 mm 6 mps 725 mmHg 65%
    14:00 +12°C° 0 mm 5 mps 725 mmHg 66%
    15:00 +12°C° 0 mm 4 mps 724 mmHg 67%
    16:00 +11°C° 0.1 mm 3 mps 724 mmHg 73%
    17:00 +10°C° 0.1 mm 2 mps 725 mmHg 79%
    18:00 +10°C° 0.1 mm 2 mps 725 mmHg 85%
    19:00 +10°C° 0.1 mm 1 mps 725 mmHg 87%
    20:00 +10°C° 0.1 mm 1 mps 725 mmHg 89%
    21:00 +10°C° 0.1 mm 1 mps 724 mmHg 90%
    22:00 +9°C° 0 mm 1 mps 724 mmHg 90%
    23:00 +9°C° 0 mm 1 mps 724 mmHg 90%

    23 November, Saturday

    Time Temperature Precipitation Wind Pressure Humidity
    00:00 +8°C° 0 mm 1 mps 724 mmHg 90%
    01:00 +8°C° 0 mm 1 mps 724 mmHg 89%
    02:00 +7°C° 0 mm 2 mps 724 mmHg 88%
    03:00 +7°C° 0 mm 2 mps 724 mmHg 86%
    04:00 +7°C° 0.7 mm 3 mps 724 mmHg 87%
    05:00 +6°C° 0.7 mm 4 mps 725 mmHg 88%
    06:00 +6°C° 0.7 mm 4 mps 725 mmHg 89%
    07:00 +7°C° 0.9 mm 5 mps 726 mmHg 87%
    08:00 +7°C° 0.9 mm 6 mps 726 mmHg 84%
    09:00 +7°C° 0.9 mm 6 mps 727 mmHg 82%
    10:00 +6°C° 0.1 mm 7 mps 727 mmHg 80%
    11:00 +7°C° 0.1 mm 8 mps 727 mmHg 77%
    12:00 +7°C° 0.1 mm 9 mps 727 mmHg 75%
    13:00 +7°C° 0.3 mm 9 mps 727 mmHg 76%
    14:00 +7°C° 0.3 mm 8 mps 727 mmHg 77%
    15:00 +7°C° 0.3 mm 8 mps 728 mmHg 78%
    16:00 +6°C° 0.3 mm 8 mps 729 mmHg 79%
    17:00 +6°C° 0.3 mm 8 mps 730 mmHg 81%
    18:00 +6°C° 0.3 mm 7 mps 731 mmHg 82%
    19:00 +6°C° 0.2 mm 7 mps 731 mmHg 83%
    20:00 +5°C° 0.2 mm 7 mps 732 mmHg 84%
    21:00 +5°C° 0.2 mm 7 mps 733 mmHg 85%
    22:00 +5°C° 0 mm 6 mps 733 mmHg 86%
    23:00 +5°C° 0 mm 6 mps 734 mmHg 86%
    Show more